Terug naar catalogus

DELTA 2 R/B

ActiefHEO
NORAD 36120·ROCKET BODY·🇺🇸 United States

Gelanceerd Dec 14, 2009 vanaf Vandenberg Space Force Base

Loading…

Volgende Passages (komende 24 uur)

TLE

VersSource: Space-Track

Epoch: Sep 13, 2026, 15:08 UTC

1 36120U 09071B   26256.63058497  .00000019  00000-0  00000-0 0  9992
2 36120  97.4996 126.9030 3450404  59.7451 330.0659  5.87187352359076

Volg DELTA 2 R/B in realtime met AllMySat

Download on the App Store